Location: Ab? ar R?sh Ba?r?
(24.1861°N, 32.8847°E)
Time: 10:09:53
(UTC+00:00)

CZ-4C R/B - Pass Details

Date: 24 October 2021
Orbit: 403 x 482 km, 97.7° (Epoch: 04 December)

Event Time Altitude Azimuth Distance (km) Brightness Sun altitude
Rises 15:30:13 0° 24° (NNE) 2,398 6.2 -4.3°
Reaches altitude 10° 15:32:24 10° 35° (NE) 1,514 5.2 -4.8°
Maximum altitude 15:35:18 31° 99° (E) 765 3.6 -5.5°
Drops below altitude 10° 15:38:08 10° 163° (SSE) 1,475 5.5 -6.1°
Sets 15:40:13 0° 174° (S) 2,324 6.6 -6.6°
